SCP
-0 -0 -0 -0 -0 -0 -0 0 0 0 0 0 0 0 0 0 0 -0 -0 -0 -0 0 0 0 0 -0 -0 0 0 0 0 0 0 0 0 0 0 0 0 0 0 0 0
0 0 -0 -0 -0 -0 -0 0 0 0 0 0 0 0 0 0 0 0 -0 -0 -0 -0 0 0 0 0 0 0 0 0 0 0 0 0 0 0 0 0 0 0 0 0 0
0 0 0 -0 -0 -0 -0 0 0 0 0 0 0 0 0 0 0 0 0 -0 -0 -0 0 0 0 0 0 0 0 0 0 0 0 0 -0 -0 0 0 0 0 0 0 0
-0 0 0 -0 0 0 0 0 0 0 0 0 0 0 0 0 0 0 0 0 0 -0 -0 0 0 0 0 0 0 0 0 0 0 0 0 0 0 0 0 0 0 0 0
0 0 0 0 0 0 0 0 0 0 0 0 0 0 0 0 0 0 0 0 0 -0 -0 -0 0 0 0 0 0 0 0 0 0 0 0 0 0 0 0 0 0 0 0
0 0 0 0 0 0 0 0 0 0 0 0 0 0 0 0 0 0 0 0 0 0 0 0 -0 0 0 0 0 0 0 0 0 0 0 0 0 0 0 0 0 0 0
-0 -0 -0 0 0 0 0 0 0 0 0 0 0 0 0 0 0 0 0 0 0 0 0 0 0 0 0 0 0 0 0 0 0 0 0 0 0 0 0 0 0 0 0
0 0 0 0 0 0 0 0 0 0 0 0 0 0 0 0 0 0 0 0 0 0 0 0 0 0 0 0 0 0 0 0 0 0 0 0 0 0 0 0 0 0 0
0 0 0 0 0 0 0 0 0 0 0 0 0 0 0 0 0 0 0 0 0 0 0 0 0 0 0 0 0 0 0 0 0 0 0 0 0 0 0 0 0 0 0
0 0 0 0 0 0 0 0 0 0 0 0 0 0 0 0 0 0 0 0 0 0 0 0 0 0 0 0 0 0 0 0 0 0 0 0 0 0 0 0 0 0 0
0 0 0 0 0 0 0 0 0 0 0 0 0 0 0 0 0 0 0 0 0 0 0 0 0 0 0 0 0 0 0 0 0 0 0 0 0 0 0 0 0 0 0
0 0 0 0 0 0 0 0 0 0 0 0 0 0 0 0 0 0 0 0 0 0 0 0 0 0 0 0 0 0 0 0 0 0 0 0 0 0 0 0 0 0 0
0 0 0 0 0 0 0 0 0 0 0 0 0 0 0 0 0 0 0 0 0 0 0 0 0 0 0 0 0 0 0 0 0 0 0 0 0 0 0 0 0 0 0
0 0 0 0 0 0 0 0 0 0 0 0 0 0 0 0 0 0 0 0 0 1 1 0 0 0 0 0 0 0 0 0 0 0 0 0 0 0 0 0 0 0 0
0 0 0 0 0 0 0 0 0 0 0 0 0 0 0 0 0 0 0 0 0 0 1 1 1 0 0 0 0 0 0 0 0 0 0 0 0 0 0 0 0 0 0
0 0 0 0 0 0 0 0 0 0 0 0 0 0 0 0 0 0 0 0 0 0 0 1 1 0 0 0 0 0 0 0 0 0 0 0 0 0 0 0 0 0 0
0 0 0 0 0 0 0 0 0 0 0 0 0 0 0 0 0 0 0 0 0 0 0 0 1 0 0 0 0 0 0 0 0 0 0 0 0 0 0 0 0 0 0
0 0 0 0 0 0 0 0 0 0 0 0 0 0 0 0 0 0 0 0 0 0 0 0 0 0 0 0 0 0 0 0 0 0 0 0 0 0 0 0 0 0 0
0 0 0 0 0 0 0 0 0 0 0 0 0 0 0 0 0 0 0 0 0 0 0 0 0 0 0 0 0 0 0 0 0 0 0 0 0 0 0 0 0 0 0
0 0 0 0 0 0 0 0 0 0 0 0 0 0 0 0 0 0 0 0 0 0 0 0 0 0 0 0 0 0 0 0 0 0 0 0 0 0 0 0 0 0 0
0 0 0 0 0 0 0 0 0 0 0 0 0 0 0 -0 -0 0 0 0 0 0 0 -0 0 0 0 0 0 0 0 0 0 0 0 0 0 0 0 0 0 0 0
0 0 0 0 0 0 0 0 0 0 0 0 0 0 0 -0 -0 -0 0 0 0 0 0 0 0 0 0 0 0 0 0 0 0 0 0 0 0 0 0 0 0 0 0
0 0 0 0 0 0 0 0 0 0 0 0 0 0 0 0 -0 -0 -0 0 0 0 0 0 0 0 0 0 0 0 0 0 0 0 0 0 0 0 0 0 0 0 0
0 0 0 0 0 0 0 0 -0 0 0 0 0 0 0 0 -0 -0 -0 -0 0 0 0 0 0 0 0 0 -0 0 0 0 0 0 0 0 0 0 0 0 0 0 0
0 -0 -0 -0 -0 -0 0 0 0 -0 0 0 0 0 0 0 -0 -0 -0 0 0 0 0 0 0 0 0 0 0 0 0 0 0 0 0 0 0 0 0 0 0 0 0
-0 -0 -0 -0 -0 -0 0 0 0 0 0 0 0 0 0 0 0 -0 -0 0 0 0 0 0 0 0 0 0 0 0 0 0 0 0 0 0 0 0 0 0 0 0 0
Wind_Speed_500mb
45 42 20 13 12 12 16 19 20 21 19 20 18 18 16 14 12 11 8 7 5 6 17 15 13 15 18 16 19 19 18 21 16 10 6 12 13 13 14 24 21 10 16
36 33 24 17 17 20 18 21 23 22 24 22 22 21 18 17 17 16 14 9 8 4 14 20 15 14 21 20 20 18 21 19 14 7 10 9 15 19 15 15 21 17 15
37 33 28 25 25 23 23 23 25 25 25 27 27 24 24 25 23 24 23 19 12 9 15 21 24 25 28 24 27 26 24 26 22 15 5 3 8 18 15 19 17 16 12
40 38 36 35 34 32 32 31 32 28 25 29 27 28 28 29 30 30 31 29 23 16 14 20 30 32 34 36 32 32 32 32 29 24 12 11 10 16 15 17 19 18 11
39 41 42 41 41 42 40 39 35 35 33 31 30 31 32 32 34 33 36 36 32 26 22 20 29 35 38 40 43 36 32 35 30 21 13 15 11 22 18 18 18 20 18
38 39 39 41 43 44 46 46 43 39 43 40 37 37 36 37 37 38 39 38 43 37 31 25 25 29 32 34 37 37 29 32 28 23 17 21 20 24 21 20 20 22 23
39 44 45 44 42 44 47 49 49 48 43 47 49 48 42 43 45 45 43 44 45 47 41 34 29 28 32 32 34 36 33 29 26 18 20 19 17 25 22 22 24 24 23
38 41 44 48 51 50 50 50 50 50 50 48 52 55 57 51 49 50 50 50 50 53 52 41 35 30 32 35 36 37 36 31 27 21 25 24 28 27 25 24 26 27 26
39 48 52 51 49 47 51 54 54 53 51 53 56 58 62 61 58 56 53 55 58 61 61 50 38 30 32 36 38 38 37 35 31 20 24 26 32 29 28 27 27 29 31
38 47 50 56 58 53 51 48 53 55 53 54 54 60 62 67 65 63 61 56 57 56 64 49 38 30 29 31 39 40 39 38 37 32 29 27 38 32 31 30 29 29 31
41 49 52 56 56 55 53 51 52 52 56 54 53 56 63 63 67 61 61 59 57 48 60 52 42 30 27 31 38 42 42 40 38 36 31 33 40 36 34 33 32 30 31
50 51 53 53 53 54 52 53 52 50 51 53 51 49 56 65 64 68 55 53 54 53 54 55 37 35 32 31 34 44 45 41 37 37 33 40 41 39 38 37 36 34 33
51 50 51 52 50 50 50 52 48 48 49 51 53 49 49 57 64 64 61 56 56 54 54 55 54 50 44 32 32 34 42 45 37 39 37 46 42 42 42 40 40 38 36
48 48 53 49 46 46 51 48 50 50 50 48 46 52 52 49 55 62 65 61 48 51 56 60 60 56 48 39 38 36 36 35 40 41 36 46 44 44 45 43 42 38 38
48 52 53 49 44 47 49 49 51 56 55 54 50 42 42 43 44 52 65 64 64 55 56 61 64 59 51 45 43 44 44 44 45 41 40 42 45 46 46 46 45 41 40
46 49 48 45 44 52 50 53 53 55 56 54 50 47 45 43 45 47 55 64 68 64 54 60 62 61 59 52 51 49 50 50 52 54 53 46 48 47 49 49 49 45 43
41 44 47 47 50 50 47 49 44 50 54 51 48 44 46 44 40 40 50 60 58 60 67 57 57 54 53 55 54 50 52 54 55 57 55 54 47 49 51 52 52 50 47
39 42 47 48 50 55 53 46 41 44 51 55 52 48 40 38 38 37 42 53 68 61 45 63 61 56 60 60 53 55 51 51 54 57 57 54 51 45 45 51 56 55 55
39 44 52 53 51 53 50 48 48 45 45 46 49 45 42 39 35 34 33 41 50 64 43 50 64 70 61 53 60 56 52 49 54 54 54 56 54 54 52 52 52 57 59
41 46 50 51 54 55 52 53 47 48 51 50 46 41 41 39 33 22 21 28 37 55 62 50 64 73 72 74 66 55 59 57 55 57 58 55 54 57 58 58 58 57 59
44 50 54 63 65 62 64 55 47 46 46 49 46 41 37 28 19 19 11 15 24 33 48 64 44 47 68 76 82 72 59 66 63 55 56 60 56 60 57 60 62 62 59
45 52 59 66 67 67 63 57 49 49 52 51 53 42 47 32 25 14 9 5 9 15 23 34 33 44 43 48 66 57 39 45 69 72 56 62 62 62 67 67 67 65 64
45 49 52 56 63 66 66 64 52 48 46 57 72 62 49 34 30 27 17 14 8 15 17 22 21 32 26 29 44 52 11 23 44 63 71 72 74 73 71 67 71 70 69
38 41 45 52 55 59 61 65 68 70 68 66 70 76 72 66 67 51 37 32 24 22 21 25 22 16 18 23 32 50 58 54 45 44 61 71 74 67 66 69 70 68 67
34 35 40 48 55 63 67 61 62 66 67 68 68 69 70 72 69 60 51 47 41 37 32 26 19 18 20 20 16 18 21 24 31 62 35 45 56 53 57 62 61 65 67
26 30 37 44 48 49 52 54 55 61 66 67 69 71 69 68 69 67 62 57 52 49 46 41 36 33 28 26 25 27 29 28 29 21 19 18 37 31 32 35 39 40 48
Wind_Direction_500mb
352 356 2 1 334 319 325 319 318 310 304 302 300 300 292 283 281 278 287 309 325 269 220 212 235 250 196 193 196 182 171 170 198 205 187 177 152 137 130 110 93 150 114
339 353 355 333 325 316 309 311 304 302 299 290 290 290 284 281 271 261 266 273 296 315 207 216 237 202 196 194 212 203 204 204 210 202 186 183 158 142 123 138 145 170 138
345 348 337 325 309 309 309 297 301 291 291 290 283 281 276 273 271 259 256 267 260 261 220 225 230 229 226 232 236 228 224 221 224 217 196 113 198 175 163 164 176 160 155
349 346 336 325 317 306 303 302 294 287 281 277 276 276 277 270 268 264 257 259 256 242 244 238 233 238 240 235 238 237 238 231 230 237 223 195 218 220 198 181 186 175 165
348 345 340 333 322 313 306 303 294 278 270 263 267 265 270 271 266 266 258 259 249 246 246 250 242 241 241 240 237 241 237 227 229 226 195 209 195 252 215 196 185 181 176
346 341 335 330 324 317 307 302 298 285 271 261 253 262 257 259 262 263 260 259 253 251 250 254 249 244 239 242 235 230 226 220 223 214 218 224 198 233 221 209 207 198 203
344 340 335 329 319 311 308 305 298 292 281 264 259 253 256 257 257 257 258 255 253 254 250 252 254 247 238 234 224 228 224 220 219 211 226 231 225 236 230 221 214 210 216
339 338 333 326 320 315 309 303 299 294 286 275 263 259 256 252 257 256 252 253 251 250 250 246 250 249 240 235 231 228 224 222 221 214 226 232 232 240 236 230 223 221 224
337 336 334 330 326 318 308 305 299 295 290 281 272 263 258 257 256 258 257 251 248 248 241 239 240 247 244 237 234 231 229 231 230 234 237 240 246 242 239 235 229 225 224
338 336 333 332 331 324 316 306 297 294 290 286 277 270 264 255 255 260 261 253 249 247 241 228 231 234 248 244 241 235 233 235 236 227 243 236 242 244 241 241 235 231 229
339 338 333 331 329 325 322 314 306 297 293 287 283 275 267 262 253 256 260 258 248 246 231 219 227 227 235 249 247 239 239 240 242 241 241 245 248 247 245 243 243 238 232
340 337 332 330 328 327 326 320 314 304 294 289 282 275 269 263 260 248 243 250 255 243 245 223 241 236 233 240 246 238 239 240 242 240 243 246 250 246 243 242 242 241 236
336 334 334 332 332 332 330 329 325 319 312 301 291 283 271 264 260 258 245 246 247 241 241 231 226 231 233 227 230 252 245 241 238 244 242 250 253 250 246 243 241 242 241
339 337 333 334 334 334 333 330 324 321 318 315 304 291 283 272 264 252 253 240 239 244 237 238 229 232 233 231 221 226 240 241 237 243 243 254 253 250 246 243 242 238 242
338 337 339 342 344 343 341 334 331 328 325 320 313 302 294 283 274 260 245 249 240 238 232 234 234 234 233 227 234 236 240 244 246 241 246 254 256 249 247 245 243 237 241
341 343 358 359 359 350 348 346 338 339 337 331 323 317 300 286 277 267 251 240 256 235 237 229 230 232 233 235 241 244 249 251 254 253 248 248 258 251 247 246 245 241 238
344 348 355 0 358 357 352 344 343 336 342 337 330 319 310 293 279 273 261 246 241 243 238 237 235 242 240 249 244 251 256 254 251 253 251 246 248 255 248 247 246 244 239
348 357 2 2 359 359 356 2 3 0 356 353 345 331 317 306 297 277 267 252 240 256 247 237 237 240 246 242 244 249 250 253 255 254 249 249 246 243 254 248 247 246 243
357 5 12 9 1 1 8 22 15 6 356 348 343 343 334 314 301 287 274 261 250 235 248 255 242 242 246 249 251 251 251 250 255 257 253 249 244 245 247 252 250 246 244
16 18 17 15 15 14 17 24 11 13 10 358 350 344 327 312 308 284 283 276 260 244 251 261 257 247 242 245 261 256 252 248 251 255 256 249 243 249 251 250 252 252 248
29 28 25 26 23 21 25 20 22 15 9 12 6 9 1 359 336 341 334 305 281 256 258 268 248 273 253 257 252 249 278 263 251 250 247 245 246 247 248 250 251 252 250
33 38 37 38 35 28 28 29 31 31 29 26 20 22 26 37 33 24 8 357 291 273 278 281 287 273 262 279 272 260 252 272 271 246 234 246 245 244 248 249 252 253 252
46 45 44 43 44 43 39 43 46 40 43 50 46 37 43 33 28 46 56 53 15 359 319 323 309 290 288 299 309 258 289 314 288 247 237 239 243 245 250 252 253 252 252
55 50 47 49 49 48 46 50 51 54 53 52 55 55 54 57 59 63 63 59 45 42 23 21 1 335 301 285 285 283 277 278 265 267 256 247 247 242 244 250 255 256 258
68 61 61 58 57 58 55 52 50 51 48 47 51 55 56 57 61 61 56 54 47 42 36 27 23 5 18 8 341 305 279 273 302 264 266 250 241 237 242 241 244 248 256
74 71 63 59 56 54 54 52 49 49 51 51 50 50 48 49 48 50 50 52 54 54 51 49 50 51 49 45 41 32 13 350 307 305 296 266 244 242 238 234 227 226 246
Wind_Speed_850mb
45 42 20 13 12 12 16 19 20 21 19 20 18 18 16 14 12 11 8 7 5 6 17 15 13 15 18 16 19 19 18 21 16 10 6 12 13 13 14 24 21 10 16
36 33 24 17 17 20 18 21 23 22 24 22 22 21 18 17 17 16 14 9 8 4 14 20 15 14 21 20 20 18 21 19 14 7 10 9 15 19 15 15 21 17 15
37 33 28 25 25 23 23 23 25 25 25 27 27 24 24 25 23 24 23 19 12 9 15 21 24 25 28 24 27 26 24 26 22 15 5 3 8 18 15 19 17 16 12
40 38 36 35 34 32 32 31 32 28 25 29 27 28 28 29 30 30 31 29 23 16 14 20 30 32 34 36 32 32 32 32 29 24 12 11 10 16 15 17 19 18 11
39 41 42 41 41 42 40 39 35 35 33 31 30 31 32 32 34 33 36 36 32 26 22 20 29 35 38 40 43 36 32 35 30 21 13 15 11 22 18 18 18 20 18
38 39 39 41 43 44 46 46 43 39 43 40 37 37 36 37 37 38 39 38 43 37 31 25 25 29 32 34 37 37 29 32 28 23 17 21 20 24 21 20 20 22 23
39 44 45 44 42 44 47 49 49 48 43 47 49 48 42 43 45 45 43 44 45 47 41 34 29 28 32 32 34 36 33 29 26 18 20 19 17 25 22 22 24 24 23
38 41 44 48 51 50 50 50 50 50 50 48 52 55 57 51 49 50 50 50 50 53 52 41 35 30 32 35 36 37 36 31 27 21 25 24 28 27 25 24 26 27 26
39 48 52 51 49 47 51 54 54 53 51 53 56 58 62 61 58 56 53 55 58 61 61 50 38 30 32 36 38 38 37 35 31 20 24 26 32 29 28 27 27 29 31
38 47 50 56 58 53 51 48 53 55 53 54 54 60 62 67 65 63 61 56 57 56 64 49 38 30 29 31 39 40 39 38 37 32 29 27 38 32 31 30 29 29 31
41 49 52 56 56 55 53 51 52 52 56 54 53 56 63 63 67 61 61 59 57 48 60 52 42 30 27 31 38 42 42 40 38 36 31 33 40 36 34 33 32 30 31
50 51 53 53 53 54 52 53 52 50 51 53 51 49 56 65 64 68 55 53 54 53 54 55 37 35 32 31 34 44 45 41 37 37 33 40 41 39 38 37 36 34 33
51 50 51 52 50 50 50 52 48 48 49 51 53 49 49 57 64 64 61 56 56 54 54 55 54 50 44 32 32 34 42 45 37 39 37 46 42 42 42 40 40 38 36
48 48 53 49 46 46 51 48 50 50 50 48 46 52 52 49 55 62 65 61 48 51 56 60 60 56 48 39 38 36 36 35 40 41 36 46 44 44 45 43 42 38 38
48 52 53 49 44 47 49 49 51 56 55 54 50 42 42 43 44 52 65 64 64 55 56 61 64 59 51 45 43 44 44 44 45 41 40 42 45 46 46 46 45 41 40
46 49 48 45 44 52 50 53 53 55 56 54 50 47 45 43 45 47 55 64 68 64 54 60 62 61 59 52 51 49 50 50 52 54 53 46 48 47 49 49 49 45 43
41 44 47 47 50 50 47 49 44 50 54 51 48 44 46 44 40 40 50 60 58 60 67 57 57 54 53 55 54 50 52 54 55 57 55 54 47 49 51 52 52 50 47
39 42 47 48 50 55 53 46 41 44 51 55 52 48 40 38 38 37 42 53 68 61 45 63 61 56 60 60 53 55 51 51 54 57 57 54 51 45 45 51 56 55 55
39 44 52 53 51 53 50 48 48 45 45 46 49 45 42 39 35 34 33 41 50 64 43 50 64 70 61 53 60 56 52 49 54 54 54 56 54 54 52 52 52 57 59
41 46 50 51 54 55 52 53 47 48 51 50 46 41 41 39 33 22 21 28 37 55 62 50 64 73 72 74 66 55 59 57 55 57 58 55 54 57 58 58 58 57 59
44 50 54 63 65 62 64 55 47 46 46 49 46 41 37 28 19 19 11 15 24 33 48 64 44 47 68 76 82 72 59 66 63 55 56 60 56 60 57 60 62 62 59
45 52 59 66 67 67 63 57 49 49 52 51 53 42 47 32 25 14 9 5 9 15 23 34 33 44 43 48 66 57 39 45 69 72 56 62 62 62 67 67 67 65 64
45 49 52 56 63 66 66 64 52 48 46 57 72 62 49 34 30 27 17 14 8 15 17 22 21 32 26 29 44 52 11 23 44 63 71 72 74 73 71 67 71 70 69
38 41 45 52 55 59 61 65 68 70 68 66 70 76 72 66 67 51 37 32 24 22 21 25 22 16 18 23 32 50 58 54 45 44 61 71 74 67 66 69 70 68 67
34 35 40 48 55 63 67 61 62 66 67 68 68 69 70 72 69 60 51 47 41 37 32 26 19 18 20 20 16 18 21 24 31 62 35 45 56 53 57 62 61 65 67
26 30 37 44 48 49 52 54 55 61 66 67 69 71 69 68 69 67 62 57 52 49 46 41 36 33 28 26 25 27 29 28 29 21 19 18 37 31 32 35 39 40 48
Wind_Direction_850mb
352 356 2 1 334 319 325 319 318 310 304 302 300 300 292 283 281 278 287 309 325 269 220 212 235 250 196 193 196 182 171 170 198 205 187 177 152 137 130 110 93 150 114
339 353 355 333 325 316 309 311 304 302 299 290 290 290 284 281 271 261 266 273 296 315 207 216 237 202 196 194 212 203 204 204 210 202 186 183 158 142 123 138 145 170 138
345 348 337 325 309 309 309 297 301 291 291 290 283 281 276 273 271 259 256 267 260 261 220 225 230 229 226 232 236 228 224 221 224 217 196 113 198 175 163 164 176 160 155
349 346 336 325 317 306 303 302 294 287 281 277 276 276 277 270 268 264 257 259 256 242 244 238 233 238 240 235 238 237 238 231 230 237 223 195 218 220 198 181 186 175 165
348 345 340 333 322 313 306 303 294 278 270 263 267 265 270 271 266 266 258 259 249 246 246 250 242 241 241 240 237 241 237 227 229 226 195 209 195 252 215 196 185 181 176
346 341 335 330 324 317 307 302 298 285 271 261 253 262 257 259 262 263 260 259 253 251 250 254 249 244 239 242 235 230 226 220 223 214 218 224 198 233 221 209 207 198 203
344 340 335 329 319 311 308 305 298 292 281 264 259 253 256 257 257 257 258 255 253 254 250 252 254 247 238 234 224 228 224 220 219 211 226 231 225 236 230 221 214 210 216
339 338 333 326 320 315 309 303 299 294 286 275 263 259 256 252 257 256 252 253 251 250 250 246 250 249 240 235 231 228 224 222 221 214 226 232 232 240 236 230 223 221 224
337 336 334 330 326 318 308 305 299 295 290 281 272 263 258 257 256 258 257 251 248 248 241 239 240 247 244 237 234 231 229 231 230 234 237 240 246 242 239 235 229 225 224
338 336 333 332 331 324 316 306 297 294 290 286 277 270 264 255 255 260 261 253 249 247 241 228 231 234 248 244 241 235 233 235 236 227 243 236 242 244 241 241 235 231 229
339 338 333 331 329 325 322 314 306 297 293 287 283 275 267 262 253 256 260 258 248 246 231 219 227 227 235 249 247 239 239 240 242 241 241 245 248 247 245 243 243 238 232
340 337 332 330 328 327 326 320 314 304 294 289 282 275 269 263 260 248 243 250 255 243 245 223 241 236 233 240 246 238 239 240 242 240 243 246 250 246 243 242 242 241 236
336 334 334 332 332 332 330 329 325 319 312 301 291 283 271 264 260 258 245 246 247 241 241 231 226 231 233 227 230 252 245 241 238 244 242 250 253 250 246 243 241 242 241
339 337 333 334 334 334 333 330 324 321 318 315 304 291 283 272 264 252 253 240 239 244 237 238 229 232 233 231 221 226 240 241 237 243 243 254 253 250 246 243 242 238 242
338 337 339 342 344 343 341 334 331 328 325 320 313 302 294 283 274 260 245 249 240 238 232 234 234 234 233 227 234 236 240 244 246 241 246 254 256 249 247 245 243 237 241
341 343 358 359 359 350 348 346 338 339 337 331 323 317 300 286 277 267 251 240 256 235 237 229 230 232 233 235 241 244 249 251 254 253 248 248 258 251 247 246 245 241 238
344 348 355 0 358 357 352 344 343 336 342 337 330 319 310 293 279 273 261 246 241 243 238 237 235 242 240 249 244 251 256 254 251 253 251 246 248 255 248 247 246 244 239
348 357 2 2 359 359 356 2 3 0 356 353 345 331 317 306 297 277 267 252 240 256 247 237 237 240 246 242 244 249 250 253 255 254 249 249 246 243 254 248 247 246 243
357 5 12 9 1 1 8 22 15 6 356 348 343 343 334 314 301 287 274 261 250 235 248 255 242 242 246 249 251 251 251 250 255 257 253 249 244 245 247 252 250 246 244
16 18 17 15 15 14 17 24 11 13 10 358 350 344 327 312 308 284 283 276 260 244 251 261 257 247 242 245 261 256 252 248 251 255 256 249 243 249 251 250 252 252 248
29 28 25 26 23 21 25 20 22 15 9 12 6 9 1 359 336 341 334 305 281 256 258 268 248 273 253 257 252 249 278 263 251 250 247 245 246 247 248 250 251 252 250
33 38 37 38 35 28 28 29 31 31 29 26 20 22 26 37 33 24 8 357 291 273 278 281 287 273 262 279 272 260 252 272 271 246 234 246 245 244 248 249 252 253 252
46 45 44 43 44 43 39 43 46 40 43 50 46 37 43 33 28 46 56 53 15 359 319 323 309 290 288 299 309 258 289 314 288 247 237 239 243 245 250 252 253 252 252
55 50 47 49 49 48 46 50 51 54 53 52 55 55 54 57 59 63 63 59 45 42 23 21 1 335 301 285 285 283 277 278 265 267 256 247 247 242 244 250 255 256 258
68 61 61 58 57 58 55 52 50 51 48 47 51 55 56 57 61 61 56 54 47 42 36 27 23 5 18 8 341 305 279 273 302 264 266 250 241 237 242 241 244 248 256
74 71 63 59 56 54 54 52 49 49 51 51 50 50 48 49 48 50 50 52 54 54 51 49 50 51 49 45 41 32 13 350 307 305 296 266 244 242 238 234 227 226 246